Year,Month,Day,Hour,Minute,Value (Times are PST for windgust in km/hr)
2016,03,09,00,00,1.60
2016,03,09,00,01,1.60
2016,03,09,00,10,1.60
2016,03,09,00,19,3.20
2016,03,09,00,20,1.60
2016,03,09,00,21,1.60
2016,03,09,00,27,1.60
2016,03,09,00,28,1.60
2016,03,09,00,29,1.60
2016,03,09,00,30,1.60
2016,03,09,00,31,1.60
2016,03,09,00,32,3.20
2016,03,09,00,33,3.20
2016,03,09,00,34,3.20
2016,03,09,00,35,3.20
2016,03,09,00,36,3.20
2016,03,09,00,37,1.60
2016,03,09,00,38,1.60
2016,03,09,00,47,1.60
2016,03,09,00,48,1.60
2016,03,09,00,49,3.20
2016,03,09,00,50,4.80
2016,03,09,00,51,3.20
2016,03,09,00,52,3.20
2016,03,09,00,53,4.80
2016,03,09,00,54,1.60
2016,03,09,00,55,3.20
2016,03,09,00,56,3.20
2016,03,09,00,57,6.40
2016,03,09,00,58,3.20
2016,03,09,00,59,1.60
2016,03,09,01,00,3.20
2016,03,09,01,01,3.20
2016,03,09,01,02,4.80
2016,03,09,01,03,3.20
2016,03,09,01,04,1.60
2016,03,09,01,05,1.60
2016,03,09,01,06,3.20
2016,03,09,01,07,4.80
2016,03,09,01,08,6.40
2016,03,09,01,09,3.20
2016,03,09,01,10,3.20
2016,03,09,01,11,3.20
2016,03,09,01,12,3.20
2016,03,09,01,13,3.20
2016,03,09,01,15,1.60
2016,03,09,01,16,1.60
2016,03,09,01,17,1.60
2016,03,09,01,18,1.60
2016,03,09,01,20,1.60
2016,03,09,01,21,1.60
2016,03,09,01,24,1.60
2016,03,09,01,25,4.80
2016,03,09,01,26,3.20
2016,03,09,01,27,4.80
2016,03,09,01,28,3.20
2016,03,09,01,31,1.60
2016,03,09,01,32,1.60
2016,03,09,01,33,3.20
2016,03,09,01,34,1.60
2016,03,09,01,35,1.60
2016,03,09,01,36,1.60
2016,03,09,01,37,3.20
2016,03,09,01,38,8.10
2016,03,09,01,39,3.20
2016,03,09,01,40,4.80
2016,03,09,01,41,3.20
2016,03,09,01,42,4.80
2016,03,09,01,43,1.60
2016,03,09,01,44,3.20
2016,03,09,01,45,3.20
2016,03,09,01,46,3.20
2016,03,09,01,47,1.60
2016,03,09,01,48,3.20
2016,03,09,01,49,4.80
2016,03,09,01,50,3.20
2016,03,09,01,51,4.80
2016,03,09,01,52,3.20
2016,03,09,01,53,1.60
2016,03,09,01,54,1.60
2016,03,09,01,55,1.60
2016,03,09,01,56,3.20
2016,03,09,01,57,1.60
2016,03,09,01,58,1.60
2016,03,09,01,59,1.60
2016,03,09,02,00,1.60
2016,03,09,02,02,1.60
2016,03,09,02,03,3.20
2016,03,09,02,04,3.20
2016,03,09,02,05,1.60
2016,03,09,02,06,1.60
2016,03,09,02,07,1.60
2016,03,09,02,08,1.60
2016,03,09,02,09,3.20
2016,03,09,02,11,3.20
2016,03,09,02,12,1.60
2016,03,09,02,13,1.60
2016,03,09,02,14,3.20
2016,03,09,02,15,6.40
2016,03,09,02,16,1.60
2016,03,09,02,17,1.60
2016,03,09,02,18,4.80
2016,03,09,02,19,4.80
2016,03,09,02,20,3.20
2016,03,09,02,21,3.20
2016,03,09,02,22,3.20
2016,03,09,02,23,4.80
2016,03,09,02,24,3.20
2016,03,09,02,25,1.60
2016,03,09,02,26,3.20
2016,03,09,02,27,3.20
2016,03,09,02,28,3.20
2016,03,09,02,29,1.60
2016,03,09,02,30,1.60
2016,03,09,02,31,3.20
2016,03,09,02,32,3.20
2016,03,09,02,33,4.80
2016,03,09,02,34,8.10
2016,03,09,02,35,8.10
2016,03,09,02,36,9.60
2016,03,09,02,37,9.60
2016,03,09,02,38,6.40
2016,03,09,02,39,8.10
2016,03,09,02,40,6.40
2016,03,09,02,41,4.80
2016,03,09,02,42,6.40
2016,03,09,02,43,4.80
2016,03,09,02,44,1.60
2016,03,09,02,45,3.20
2016,03,09,02,46,3.20
2016,03,09,02,47,3.20
2016,03,09,02,48,1.60
2016,03,09,02,49,1.60
2016,03,09,02,50,4.80
2016,03,09,02,51,3.20
2016,03,09,02,52,3.20
2016,03,09,02,53,1.60
2016,03,09,02,54,3.20
2016,03,09,02,55,3.20
2016,03,09,02,56,1.60
2016,03,09,02,57,4.80
2016,03,09,02,58,4.80
2016,03,09,02,59,1.60
2016,03,09,03,00,1.60
2016,03,09,03,01,1.60
2016,03,09,03,02,1.60
2016,03,09,03,03,3.20
2016,03,09,03,04,1.60
2016,03,09,03,05,3.20
2016,03,09,03,06,1.60
2016,03,09,03,07,4.80
2016,03,09,03,08,1.60
2016,03,09,03,09,3.20
2016,03,09,03,10,3.20
2016,03,09,03,11,4.80
2016,03,09,03,12,3.20
2016,03,09,03,13,1.60
2016,03,09,03,14,3.20
2016,03,09,03,15,3.20
2016,03,09,03,16,3.20
2016,03,09,03,17,3.20
2016,03,09,03,18,1.60
2016,03,09,03,19,1.60
2016,03,09,03,20,4.80
2016,03,09,03,21,1.60
2016,03,09,03,22,4.80
2016,03,09,03,23,3.20
2016,03,09,03,24,6.40
2016,03,09,03,25,6.40
2016,03,09,03,26,4.80
2016,03,09,03,27,8.10
2016,03,09,03,28,3.20
2016,03,09,03,29,3.20
2016,03,09,03,30,4.80
2016,03,09,03,31,3.20
2016,03,09,03,32,6.40
2016,03,09,03,33,4.80
2016,03,09,03,34,3.20
2016,03,09,03,35,1.60
2016,03,09,03,36,3.20
2016,03,09,03,37,3.20
2016,03,09,03,38,3.20
2016,03,09,03,39,8.10
2016,03,09,03,40,9.60
2016,03,09,03,41,4.80
2016,03,09,03,42,3.20
2016,03,09,03,43,3.20
2016,03,09,03,44,4.80
2016,03,09,03,45,3.20
2016,03,09,03,46,8.10
2016,03,09,03,47,3.20
2016,03,09,03,48,4.80
2016,03,09,03,49,6.40
2016,03,09,03,50,9.60
2016,03,09,03,51,3.20
2016,03,09,03,52,1.60
2016,03,09,03,53,3.20
2016,03,09,03,54,6.40
2016,03,09,03,55,3.20
2016,03,09,03,56,1.60
2016,03,09,03,57,9.60
2016,03,09,03,58,4.80
2016,03,09,03,59,3.20
2016,03,09,04,00,1.60
2016,03,09,04,01,6.40
2016,03,09,04,02,3.20
2016,03,09,04,03,1.60
2016,03,09,04,05,11.30
2016,03,09,04,06,4.80
2016,03,09,04,07,4.80
2016,03,09,04,08,6.40
2016,03,09,04,09,1.60
2016,03,09,04,10,1.60
2016,03,09,04,11,3.20
2016,03,09,04,12,6.40
2016,03,09,04,13,3.20
2016,03,09,04,14,4.80
2016,03,09,04,15,4.80
2016,03,09,04,16,4.80
2016,03,09,04,17,3.20
2016,03,09,04,18,8.10
2016,03,09,04,19,6.40
2016,03,09,04,20,8.10
2016,03,09,04,21,1.60
2016,03,09,04,22,3.20
2016,03,09,04,23,3.20
2016,03,09,04,24,1.60
2016,03,09,04,25,12.90
2016,03,09,04,26,6.40
2016,03,09,04,27,1.60
2016,03,09,04,28,3.20
2016,03,09,04,29,3.20
2016,03,09,04,30,11.30
2016,03,09,04,31,4.80
2016,03,09,04,32,3.20
2016,03,09,04,33,1.60
2016,03,09,04,34,1.60
2016,03,09,04,35,8.10
2016,03,09,04,36,4.80
2016,03,09,04,37,8.10
2016,03,09,04,38,8.10
2016,03,09,04,39,1.60
2016,03,09,04,40,6.40
2016,03,09,04,41,6.40
2016,03,09,04,42,3.20
2016,03,09,04,43,6.40
2016,03,09,04,44,4.80
2016,03,09,04,45,3.20
2016,03,09,04,46,4.80
2016,03,09,04,47,1.60
2016,03,09,04,48,3.20
2016,03,09,04,49,4.80
2016,03,09,04,50,1.60
2016,03,09,04,51,6.40
2016,03,09,04,52,4.80
2016,03,09,04,53,8.10
2016,03,09,04,54,3.20
2016,03,09,04,55,4.80
2016,03,09,04,56,3.20
2016,03,09,04,57,1.60
2016,03,09,04,59,1.60
2016,03,09,05,00,4.80
2016,03,09,05,01,4.80
2016,03,09,05,02,4.80
2016,03,09,05,03,11.30
2016,03,09,05,04,11.30
2016,03,09,05,05,8.10
2016,03,09,05,06,1.60
2016,03,09,05,07,3.20
2016,03,09,05,08,1.60
2016,03,09,05,09,3.20
2016,03,09,05,10,6.40
2016,03,09,05,11,3.20
2016,03,09,05,13,1.60
2016,03,09,05,14,1.60
2016,03,09,05,16,4.80
2016,03,09,05,17,12.90
2016,03,09,05,18,4.80
2016,03,09,05,19,8.10
2016,03,09,05,20,6.40
2016,03,09,05,21,4.80
2016,03,09,05,22,8.10
2016,03,09,05,23,3.20
2016,03,09,05,24,3.20
2016,03,09,05,25,1.60
2016,03,09,05,26,4.80
2016,03,09,05,27,4.80
2016,03,09,05,28,4.80
2016,03,09,05,29,3.20
2016,03,09,05,30,4.80
2016,03,09,05,31,1.60
2016,03,09,05,32,4.80
2016,03,09,05,33,11.30
2016,03,09,05,34,1.60
2016,03,09,05,35,4.80
2016,03,09,05,36,1.60
2016,03,09,05,37,3.20
2016,03,09,05,38,3.20
2016,03,09,05,39,8.10
2016,03,09,05,40,11.30
2016,03,09,05,41,3.20
2016,03,09,05,42,3.20
2016,03,09,05,43,3.20
2016,03,09,05,44,1.60
2016,03,09,05,45,4.80
2016,03,09,05,46,1.60
2016,03,09,05,47,3.20
2016,03,09,05,48,3.20
2016,03,09,05,49,9.60
2016,03,09,05,50,3.20
2016,03,09,05,51,4.80
2016,03,09,05,52,4.80
2016,03,09,05,53,4.80
2016,03,09,05,54,1.60
2016,03,09,05,55,1.60
2016,03,09,05,56,1.60
2016,03,09,05,57,4.80
2016,03,09,05,58,6.40
2016,03,09,05,59,4.80
2016,03,09,06,00,6.40
2016,03,09,06,01,4.80
2016,03,09,06,02,1.60
2016,03,09,06,03,3.20
2016,03,09,06,04,4.80
2016,03,09,06,05,1.60
2016,03,09,06,08,1.60
2016,03,09,06,09,1.60
2016,03,09,06,10,3.20
2016,03,09,06,11,3.20
2016,03,09,06,12,3.20
2016,03,09,06,13,6.40
2016,03,09,06,14,1.60
2016,03,09,06,15,1.60
2016,03,09,06,16,1.60
2016,03,09,06,17,3.20
2016,03,09,06,18,6.40
2016,03,09,06,19,8.10
2016,03,09,06,20,3.20
2016,03,09,06,21,4.80
2016,03,09,06,22,3.20
2016,03,09,06,23,3.20
2016,03,09,06,24,6.40
2016,03,09,06,25,3.20
2016,03,09,06,26,1.60
2016,03,09,06,27,6.40
2016,03,09,06,28,6.40
2016,03,09,06,29,3.20
2016,03,09,06,30,3.20
2016,03,09,06,31,1.60
2016,03,09,06,32,1.60
2016,03,09,06,33,3.20
2016,03,09,06,34,1.60
2016,03,09,06,35,1.60
2016,03,09,06,40,1.60
2016,03,09,06,41,3.20
2016,03,09,06,42,1.60
2016,03,09,06,43,3.20
2016,03,09,06,44,1.60
2016,03,09,06,45,1.60
2016,03,09,06,50,1.60
2016,03,09,06,51,1.60
2016,03,09,06,52,3.20
2016,03,09,06,53,1.60
2016,03,09,06,54,1.60
2016,03,09,06,55,1.60
2016,03,09,06,59,3.20
2016,03,09,07,01,3.20
2016,03,09,07,02,4.80
2016,03,09,07,03,3.20
2016,03,09,07,04,1.60
2016,03,09,07,05,1.60
2016,03,09,07,06,1.60
2016,03,09,07,07,1.60
2016,03,09,07,08,1.60
2016,03,09,07,11,3.20
2016,03,09,07,12,4.80
2016,03,09,07,13,1.60
2016,03,09,07,14,1.60
2016,03,09,07,15,1.60
2016,03,09,07,16,3.20
2016,03,09,07,18,4.80
2016,03,09,07,19,3.20
2016,03,09,07,20,1.60
2016,03,09,07,21,1.60
2016,03,09,07,27,4.80
2016,03,09,07,28,4.80
2016,03,09,07,29,1.60
2016,03,09,07,34,1.60
2016,03,09,07,40,1.60
2016,03,09,07,48,1.60
2016,03,09,07,50,1.60
2016,03,09,07,57,1.60
2016,03,09,07,58,1.60
2016,03,09,07,59,3.20
2016,03,09,08,00,1.60
2016,03,09,08,03,1.60
2016,03,09,08,06,1.60
2016,03,09,08,07,3.20
2016,03,09,08,11,1.60
2016,03,09,08,16,1.60
2016,03,09,08,21,3.20
2016,03,09,08,22,3.20
2016,03,09,08,23,1.60
2016,03,09,08,25,3.20
2016,03,09,08,26,1.60
2016,03,09,08,27,3.20
2016,03,09,08,29,3.20
2016,03,09,08,30,1.60
2016,03,09,08,31,1.60
2016,03,09,08,33,3.20
2016,03,09,08,34,4.80
2016,03,09,08,35,4.80
2016,03,09,08,36,3.20
2016,03,09,08,37,1.60
2016,03,09,08,39,4.80
2016,03,09,08,40,3.20
2016,03,09,08,41,3.20
2016,03,09,08,42,1.60
2016,03,09,08,43,6.40
2016,03,09,08,44,4.80
2016,03,09,08,45,1.60
2016,03,09,08,46,1.60
2016,03,09,08,47,6.40
2016,03,09,08,48,1.60
2016,03,09,08,49,4.80
2016,03,09,08,50,3.20
2016,03,09,08,51,4.80
2016,03,09,08,52,1.60
2016,03,09,08,54,1.60
2016,03,09,08,55,1.60
2016,03,09,08,56,1.60
2016,03,09,08,57,1.60
2016,03,09,08,58,3.20
2016,03,09,09,00,1.60
2016,03,09,09,01,3.20
2016,03,09,09,02,1.60
2016,03,09,09,03,1.60
2016,03,09,09,05,1.60
2016,03,09,09,07,1.60
2016,03,09,09,08,3.20
2016,03,09,09,09,3.20
2016,03,09,09,10,1.60
2016,03,09,09,11,3.20
2016,03,09,09,13,1.60
2016,03,09,09,17,3.20
2016,03,09,09,18,4.80
2016,03,09,09,19,1.60
2016,03,09,09,20,3.20
2016,03,09,09,21,1.60
2016,03,09,09,26,1.60
2016,03,09,09,27,1.60
2016,03,09,09,28,1.60
2016,03,09,09,30,1.60
2016,03,09,09,31,1.60
2016,03,09,09,32,3.20
2016,03,09,09,34,1.60
2016,03,09,09,35,3.20
2016,03,09,09,36,4.80
2016,03,09,09,37,8.10
2016,03,09,09,38,3.20
2016,03,09,09,39,6.40
2016,03,09,09,40,4.80
2016,03,09,09,41,3.20
2016,03,09,09,42,6.40
2016,03,09,09,43,1.60
2016,03,09,09,44,3.20
2016,03,09,09,45,3.20
2016,03,09,09,46,9.60
2016,03,09,09,47,6.40
2016,03,09,09,48,6.40
2016,03,09,09,49,3.20
2016,03,09,09,50,3.20
2016,03,09,09,51,1.60
2016,03,09,09,52,3.20
2016,03,09,09,53,1.60
2016,03,09,09,54,6.40
2016,03,09,09,55,1.60
2016,03,09,09,56,9.60
2016,03,09,09,57,6.40
2016,03,09,09,58,4.80
2016,03,09,09,59,4.80
2016,03,09,10,00,4.80
2016,03,09,10,01,3.20
2016,03,09,10,02,6.40
2016,03,09,10,03,6.40
2016,03,09,10,04,4.80
2016,03,09,10,05,4.80
2016,03,09,10,06,6.40
2016,03,09,10,07,4.80
2016,03,09,10,08,8.10
2016,03,09,10,09,6.40
2016,03,09,10,10,4.80
2016,03,09,10,11,9.60
2016,03,09,10,12,4.80
2016,03,09,10,13,3.20
2016,03,09,10,14,6.40
2016,03,09,10,15,11.30
2016,03,09,10,16,1.60
2016,03,09,10,17,3.20
2016,03,09,10,18,8.10
2016,03,09,10,19,6.40
2016,03,09,10,20,4.80
2016,03,09,10,21,8.10
2016,03,09,10,22,3.20
2016,03,09,10,23,3.20
2016,03,09,10,24,3.20
2016,03,09,10,25,6.40
2016,03,09,10,26,12.90
2016,03,09,10,27,4.80
2016,03,09,10,28,9.60
2016,03,09,10,29,9.60
2016,03,09,10,30,9.60
2016,03,09,10,31,1.60
2016,03,09,10,32,6.40
2016,03,09,10,33,4.80
2016,03,09,10,34,3.20
2016,03,09,10,35,3.20
2016,03,09,10,36,6.40
2016,03,09,10,37,12.90
2016,03,09,10,38,14.50
2016,03,09,10,39,11.30
2016,03,09,10,40,8.10
2016,03,09,10,41,6.40
2016,03,09,10,42,6.40
2016,03,09,10,43,3.20
2016,03,09,10,44,8.10
2016,03,09,10,45,8.10
2016,03,09,10,46,6.40
2016,03,09,10,47,4.80
2016,03,09,10,48,8.10
2016,03,09,10,49,6.40
2016,03,09,10,50,8.10
2016,03,09,10,51,8.10
2016,03,09,10,52,8.10
2016,03,09,10,53,8.10
2016,03,09,10,54,4.80
2016,03,09,10,55,4.80
2016,03,09,10,56,8.10
2016,03,09,10,57,11.30
2016,03,09,10,58,3.20
2016,03,09,10,59,6.40
2016,03,09,11,00,4.80
2016,03,09,11,01,4.80
2016,03,09,11,02,8.10
2016,03,09,11,03,3.20
2016,03,09,11,04,4.80
2016,03,09,11,05,8.10
2016,03,09,11,06,6.40
2016,03,09,11,07,3.20
2016,03,09,11,08,6.40
2016,03,09,11,09,6.40
2016,03,09,11,10,6.40
2016,03,09,11,11,6.40
2016,03,09,11,12,3.20
2016,03,09,11,13,11.30
2016,03,09,11,14,3.20
2016,03,09,11,15,8.10
2016,03,09,11,16,4.80
2016,03,09,11,17,3.20
2016,03,09,11,18,4.80
2016,03,09,11,19,11.30
2016,03,09,11,20,1.60
2016,03,09,11,21,6.40
2016,03,09,11,22,4.80
2016,03,09,11,23,8.10
2016,03,09,11,24,8.10
2016,03,09,11,25,4.80
2016,03,09,11,26,6.40
2016,03,09,11,27,9.60
2016,03,09,11,28,6.40
2016,03,09,11,29,3.20
2016,03,09,11,30,8.10
2016,03,09,11,31,1.60
2016,03,09,11,32,4.80
2016,03,09,11,33,4.80
2016,03,09,11,34,3.20
2016,03,09,11,35,1.60
2016,03,09,11,36,4.80
2016,03,09,11,37,4.80
2016,03,09,11,38,4.80
2016,03,09,11,39,1.60
2016,03,09,11,40,3.20
2016,03,09,11,41,3.20
2016,03,09,11,42,3.20
2016,03,09,11,43,4.80
2016,03,09,11,44,1.60
2016,03,09,11,45,1.60
2016,03,09,11,46,3.20
2016,03,09,11,47,3.20
2016,03,09,11,48,1.60
2016,03,09,11,49,1.60
2016,03,09,11,50,4.80
2016,03,09,11,51,4.80
2016,03,09,11,52,8.10
2016,03,09,11,53,3.20
2016,03,09,11,54,3.20
2016,03,09,11,55,1.60
2016,03,09,11,56,4.80
2016,03,09,11,57,1.60
2016,03,09,11,58,4.80
2016,03,09,11,59,3.20
2016,03,09,12,00,3.20
2016,03,09,12,01,8.10
2016,03,09,12,02,4.80
2016,03,09,12,03,6.40
2016,03,09,12,04,3.20
2016,03,09,12,05,8.10
2016,03,09,12,06,3.20
2016,03,09,12,07,1.60
2016,03,09,12,08,3.20
2016,03,09,12,09,4.80
2016,03,09,12,10,4.80
2016,03,09,12,11,3.20
2016,03,09,12,12,3.20
2016,03,09,12,13,3.20
2016,03,09,12,14,4.80
2016,03,09,12,15,3.20
2016,03,09,12,16,6.40
2016,03,09,12,17,1.60
2016,03,09,12,18,1.60
2016,03,09,12,19,1.60
2016,03,09,12,20,1.60
2016,03,09,12,21,1.60
2016,03,09,12,22,1.60
2016,03,09,12,23,1.60
2016,03,09,12,24,1.60
2016,03,09,12,25,3.20
2016,03,09,12,26,1.60
2016,03,09,12,27,6.40
2016,03,09,12,28,3.20
2016,03,09,12,29,1.60
2016,03,09,12,30,1.60
2016,03,09,12,31,3.20
2016,03,09,12,32,3.20
2016,03,09,12,33,4.80
2016,03,09,12,34,4.80
2016,03,09,12,35,4.80
2016,03,09,12,36,1.60
2016,03,09,12,37,1.60
2016,03,09,12,38,1.60
2016,03,09,12,39,1.60
2016,03,09,12,44,1.60
2016,03,09,12,45,3.20
2016,03,09,12,46,1.60
2016,03,09,12,47,1.60
2016,03,09,12,48,1.60
2016,03,09,12,49,1.60
2016,03,09,12,50,1.60
2016,03,09,12,51,3.20
2016,03,09,12,52,1.60
2016,03,09,12,53,1.60
2016,03,09,12,54,1.60
2016,03,09,12,55,1.60
2016,03,09,12,56,1.60
2016,03,09,12,57,3.20
2016,03,09,12,58,3.20
2016,03,09,12,59,3.20
2016,03,09,13,00,1.60
2016,03,09,13,01,1.60
2016,03,09,13,02,3.20
2016,03,09,13,03,3.20
2016,03,09,13,04,3.20
2016,03,09,13,05,1.60
2016,03,09,13,06,3.20
2016,03,09,13,07,3.20
2016,03,09,13,08,1.60
2016,03,09,13,09,1.60
2016,03,09,13,10,1.60
2016,03,09,13,11,1.60
2016,03,09,13,12,1.60
2016,03,09,13,13,3.20
2016,03,09,13,14,3.20
2016,03,09,13,15,3.20
2016,03,09,13,16,3.20
2016,03,09,13,17,3.20
2016,03,09,13,18,1.60
2016,03,09,13,19,1.60
2016,03,09,13,20,3.20
2016,03,09,13,21,1.60
2016,03,09,13,22,4.80
2016,03,09,13,23,4.80
2016,03,09,13,24,3.20
2016,03,09,13,25,4.80
2016,03,09,13,26,3.20
2016,03,09,13,27,4.80
2016,03,09,13,28,12.90
2016,03,09,13,29,3.20
2016,03,09,13,30,4.80
2016,03,09,13,31,8.10
2016,03,09,13,32,8.10
2016,03,09,13,33,6.40
2016,03,09,13,34,4.80
2016,03,09,13,35,8.10
2016,03,09,13,36,8.10
2016,03,09,13,37,3.20
2016,03,09,13,38,17.70
2016,03,09,13,39,11.30
2016,03,09,13,40,8.10
2016,03,09,13,41,6.40
2016,03,09,13,42,6.40
2016,03,09,13,43,3.20
2016,03,09,13,44,6.40
2016,03,09,13,45,4.80
2016,03,09,13,46,14.50
2016,03,09,13,47,16.10
2016,03,09,13,48,22.50
2016,03,09,13,49,8.10
2016,03,09,13,50,9.60
2016,03,09,13,51,3.20
2016,03,09,13,52,6.40
2016,03,09,13,53,4.80
2016,03,09,13,54,4.80
2016,03,09,13,55,4.80
2016,03,09,13,56,8.10
2016,03,09,13,57,3.20
2016,03,09,13,58,6.40
2016,03,09,13,59,17.70
2016,03,09,14,00,3.20
2016,03,09,14,01,12.90
2016,03,09,14,02,9.60
2016,03,09,14,03,11.30
2016,03,09,14,04,4.80
2016,03,09,14,05,8.10
2016,03,09,14,06,4.80
2016,03,09,14,07,6.40
2016,03,09,14,08,11.30
2016,03,09,14,09,11.30
2016,03,09,14,10,9.60
2016,03,09,14,11,8.10
2016,03,09,14,12,9.60
2016,03,09,14,13,3.20
2016,03,09,14,14,11.30
2016,03,09,14,15,4.80
2016,03,09,14,16,9.60
2016,03,09,14,17,9.60
2016,03,09,14,18,9.60
2016,03,09,14,19,8.10
2016,03,09,14,20,9.60
2016,03,09,14,21,11.30
2016,03,09,14,22,1.60
2016,03,09,14,23,8.10
2016,03,09,14,24,9.60
2016,03,09,14,25,8.10
2016,03,09,14,26,11.30
2016,03,09,14,27,9.60
2016,03,09,14,28,6.40
2016,03,09,14,29,3.20
2016,03,09,14,30,8.10
2016,03,09,14,31,3.20
2016,03,09,14,32,3.20
2016,03,09,14,33,6.40
2016,03,09,14,34,4.80
2016,03,09,14,35,4.80
2016,03,09,14,36,8.10
2016,03,09,14,37,6.40
2016,03,09,14,38,8.10
2016,03,09,14,39,3.20
2016,03,09,14,40,6.40
2016,03,09,14,41,8.10
2016,03,09,14,42,8.10
2016,03,09,14,43,8.10
2016,03,09,14,44,3.20
2016,03,09,14,45,8.10
2016,03,09,14,46,9.60
2016,03,09,14,47,22.50
2016,03,09,14,48,11.30
2016,03,09,14,49,16.10
2016,03,09,14,50,11.30
2016,03,09,14,51,9.60
2016,03,09,14,52,11.30
2016,03,09,14,53,8.10
2016,03,09,14,54,12.90
2016,03,09,14,55,9.60
2016,03,09,14,56,3.20
2016,03,09,14,57,9.60
2016,03,09,14,58,12.90
2016,03,09,14,59,11.30
2016,03,09,15,00,16.10
2016,03,09,15,01,16.10
2016,03,09,15,02,6.40
2016,03,09,15,03,12.90
2016,03,09,15,04,16.10
2016,03,09,15,05,16.10
2016,03,09,15,06,19.30
2016,03,09,15,07,9.60
2016,03,09,15,08,12.90
2016,03,09,15,09,11.30
2016,03,09,15,10,24.20
2016,03,09,15,11,14.50
2016,03,09,15,12,20.90
2016,03,09,15,13,20.90
2016,03,09,15,14,12.90
2016,03,09,15,15,11.30
2016,03,09,15,16,14.50
2016,03,09,15,17,11.30
2016,03,09,15,18,6.40
2016,03,09,15,19,17.70
2016,03,09,15,20,17.70
2016,03,09,15,21,16.10
2016,03,09,15,22,12.90
2016,03,09,15,23,11.30
2016,03,09,15,24,20.90
2016,03,09,15,25,11.30
2016,03,09,15,26,16.10
2016,03,09,15,27,8.10
2016,03,09,15,28,25.70
2016,03,09,15,29,11.30
2016,03,09,15,30,12.90
2016,03,09,15,31,9.60
2016,03,09,15,32,6.40
2016,03,09,15,33,22.50
2016,03,09,15,34,11.30
2016,03,09,15,35,9.60
2016,03,09,15,36,16.10
2016,03,09,15,37,9.60
2016,03,09,15,38,14.50
2016,03,09,15,39,8.10
2016,03,09,15,40,22.50
2016,03,09,15,41,14.50
2016,03,09,15,42,9.60
2016,03,09,15,43,8.10
2016,03,09,15,44,8.10
2016,03,09,15,45,8.10
2016,03,09,15,46,12.90
2016,03,09,15,47,12.90
2016,03,09,15,48,12.90
2016,03,09,15,49,9.60
2016,03,09,15,50,12.90
2016,03,09,15,51,6.40
2016,03,09,15,52,8.10
2016,03,09,15,53,17.70
2016,03,09,15,54,8.10
2016,03,09,15,55,6.40
2016,03,09,15,56,12.90
2016,03,09,15,57,12.90
2016,03,09,15,58,11.30
2016,03,09,15,59,6.40
2016,03,09,16,00,16.10
2016,03,09,16,01,9.60
2016,03,09,16,02,16.10
2016,03,09,16,03,12.90
2016,03,09,16,04,11.30
2016,03,09,16,05,11.30
2016,03,09,16,06,11.30
2016,03,09,16,07,14.50
2016,03,09,16,08,4.80
2016,03,09,16,09,9.60
2016,03,09,16,10,4.80
2016,03,09,16,11,6.40
2016,03,09,16,12,12.90
2016,03,09,16,13,12.90
2016,03,09,16,14,16.10
2016,03,09,16,15,14.50
2016,03,09,16,16,6.40
2016,03,09,16,17,12.90
2016,03,09,16,18,19.30
2016,03,09,16,19,16.10
2016,03,09,16,20,6.40
2016,03,09,16,21,6.40
2016,03,09,16,22,11.30
2016,03,09,16,23,11.30
2016,03,09,16,24,11.30
2016,03,09,16,25,12.90
2016,03,09,16,26,4.80
2016,03,09,16,27,11.30
2016,03,09,16,28,11.30
2016,03,09,16,29,6.40
2016,03,09,16,30,12.90
2016,03,09,16,31,14.50
2016,03,09,16,32,14.50
2016,03,09,16,33,16.10
2016,03,09,16,34,9.60
2016,03,09,16,35,16.10
2016,03,09,16,36,14.50
2016,03,09,16,37,11.30
2016,03,09,16,38,14.50
2016,03,09,16,39,4.80
2016,03,09,16,40,1.60
2016,03,09,16,41,8.10
2016,03,09,16,42,4.80
2016,03,09,16,43,8.10
2016,03,09,16,44,8.10
2016,03,09,16,45,6.40
2016,03,09,16,46,8.10
2016,03,09,16,47,3.20
2016,03,09,16,48,8.10
2016,03,09,16,49,6.40
2016,03,09,16,50,9.60
2016,03,09,16,51,9.60
2016,03,09,16,52,9.60
2016,03,09,16,53,6.40
2016,03,09,16,54,9.60
2016,03,09,16,55,9.60
2016,03,09,16,56,3.20
2016,03,09,16,57,9.60
2016,03,09,16,58,8.10
2016,03,09,16,59,8.10
2016,03,09,17,00,12.90
2016,03,09,17,01,8.10
2016,03,09,17,02,6.40
2016,03,09,17,03,6.40
2016,03,09,17,04,4.80
2016,03,09,17,05,16.10
2016,03,09,17,06,12.90
2016,03,09,17,07,4.80
2016,03,09,17,08,6.40
2016,03,09,17,09,9.60
2016,03,09,17,10,8.10
2016,03,09,17,11,11.30
2016,03,09,17,12,8.10
2016,03,09,17,13,6.40
2016,03,09,17,14,14.50
2016,03,09,17,15,6.40
2016,03,09,17,16,12.90
2016,03,09,17,17,8.10
2016,03,09,17,18,9.60
2016,03,09,17,19,12.90
2016,03,09,17,20,12.90
2016,03,09,17,21,16.10
2016,03,09,17,22,12.90
2016,03,09,17,23,11.30
2016,03,09,17,24,14.50
2016,03,09,17,25,4.80
2016,03,09,17,26,9.60
2016,03,09,17,27,12.90
2016,03,09,17,28,16.10
2016,03,09,17,29,9.60
2016,03,09,17,30,14.50
2016,03,09,17,31,12.90
2016,03,09,17,32,12.90
2016,03,09,17,33,6.40
2016,03,09,17,34,6.40
2016,03,09,17,35,12.90
2016,03,09,17,36,20.90
2016,03,09,17,37,9.60
2016,03,09,17,38,11.30
2016,03,09,17,39,22.50
2016,03,09,17,40,8.10
2016,03,09,17,41,8.10
2016,03,09,17,42,9.60
2016,03,09,17,43,6.40
2016,03,09,17,44,12.90
2016,03,09,17,45,11.30
2016,03,09,17,46,12.90
2016,03,09,17,47,16.10
2016,03,09,17,48,16.10
2016,03,09,17,49,9.60
2016,03,09,17,50,9.60
2016,03,09,17,51,4.80
2016,03,09,17,52,11.30
2016,03,09,17,53,14.50
2016,03,09,17,54,12.90
2016,03,09,17,55,8.10
2016,03,09,17,56,17.70
2016,03,09,17,57,16.10
2016,03,09,17,58,16.10
2016,03,09,17,59,6.40
2016,03,09,18,00,12.90
2016,03,09,18,01,19.30
2016,03,09,18,02,11.30
2016,03,09,18,03,11.30
2016,03,09,18,04,14.50
2016,03,09,18,05,12.90
2016,03,09,18,06,16.10
2016,03,09,18,07,14.50
2016,03,09,18,08,9.60
2016,03,09,18,09,4.80
2016,03,09,18,10,22.50
2016,03,09,18,11,9.60
2016,03,09,18,12,16.10
2016,03,09,18,13,20.90
2016,03,09,18,14,24.20
2016,03,09,18,15,8.10
2016,03,09,18,16,19.30
2016,03,09,18,17,12.90
2016,03,09,18,18,24.20
2016,03,09,18,19,11.30
2016,03,09,18,20,11.30
2016,03,09,18,21,14.50
2016,03,09,18,22,14.50
2016,03,09,18,23,12.90
2016,03,09,18,24,20.90
2016,03,09,18,25,12.90
2016,03,09,18,26,9.60
2016,03,09,18,27,19.30
2016,03,09,18,28,9.60
2016,03,09,18,29,9.60
2016,03,09,18,30,38.60
2016,03,09,18,31,16.10
2016,03,09,18,32,12.90
2016,03,09,18,33,9.60
2016,03,09,18,34,19.30
2016,03,09,18,35,11.30
2016,03,09,18,36,14.50
2016,03,09,18,37,12.90
2016,03,09,18,38,22.50
2016,03,09,18,39,12.90
2016,03,09,18,40,19.30
2016,03,09,18,41,22.50
2016,03,09,18,42,9.60
2016,03,09,18,43,12.90
2016,03,09,18,44,14.50
2016,03,09,18,45,11.30
2016,03,09,18,46,17.70
2016,03,09,18,47,17.70
2016,03,09,18,48,20.90
2016,03,09,18,49,41.80
2016,03,09,18,50,16.10
2016,03,09,18,51,19.30
2016,03,09,18,52,27.40
2016,03,09,18,53,16.10
2016,03,09,18,54,38.60
2016,03,09,18,55,27.40
2016,03,09,18,56,38.60
2016,03,09,18,57,16.10
2016,03,09,18,58,9.60
2016,03,09,18,59,17.70
2016,03,09,19,00,12.90
2016,03,09,19,01,12.90
2016,03,09,19,02,11.30
2016,03,09,19,03,8.10
2016,03,09,19,04,25.70
2016,03,09,19,05,25.70
2016,03,09,19,06,24.20
2016,03,09,19,07,24.20
2016,03,09,19,08,17.70
2016,03,09,19,09,22.50
2016,03,09,19,10,22.50
2016,03,09,19,11,11.30
2016,03,09,19,12,41.80
2016,03,09,19,13,14.50
2016,03,09,19,14,9.60
2016,03,09,19,15,11.30
2016,03,09,19,16,27.40
2016,03,09,19,17,22.50
2016,03,09,19,18,33.80
2016,03,09,19,19,24.20
2016,03,09,19,20,20.90
2016,03,09,19,21,19.30
2016,03,09,19,22,16.10
2016,03,09,19,23,29.00
2016,03,09,19,24,20.90
2016,03,09,19,25,24.20
2016,03,09,19,26,38.60
2016,03,09,19,27,11.30
2016,03,09,19,28,11.30
2016,03,09,19,29,16.10
2016,03,09,19,30,20.90
2016,03,09,19,31,22.50
2016,03,09,19,32,30.60
2016,03,09,19,33,9.60
2016,03,09,19,34,16.10
2016,03,09,19,35,14.50
2016,03,09,19,36,11.30
2016,03,09,19,37,12.90
2016,03,09,19,38,12.90
2016,03,09,19,39,17.70
2016,03,09,19,40,20.90
2016,03,09,19,41,12.90
2016,03,09,19,42,17.70
2016,03,09,19,43,38.60
2016,03,09,19,44,17.70
2016,03,09,19,45,33.80
2016,03,09,19,46,22.50
2016,03,09,19,47,14.50
2016,03,09,19,48,11.30
2016,03,09,19,49,12.90
2016,03,09,19,50,16.10
2016,03,09,19,51,17.70
2016,03,09,19,52,29.00
2016,03,09,19,53,27.40
2016,03,09,19,54,17.70
2016,03,09,19,55,32.20
2016,03,09,19,56,24.20
2016,03,09,19,57,16.10
2016,03,09,19,58,17.70